Location: Tamazert
(32.6352°N, 5.2072°W)
Time: 22:41:59
(UTC+00:00)

SeaSat 1 - Pass Details

Date: 22 May 2022
Orbit: 743 x 747 km, 108.0° (Epoch: 24 June)

Event Time Altitude Azimuth Distance (km) Brightness Sun altitude
Rises 04:18:30 0° 15° (NNE) 3,194 6.5 -11.8°
Reaches altitude 10° 04:20:51 10° 9° (N) 2,267 5.6 -11.4°
Maximum altitude 04:25:30 44° 299° (WNW) 1,028 3.0 -10.5°
Enters shadow 04:29:45 12° 230° (SW) 2,106 4.1 -9.8°
